Regional Weather Roundup
Issued by NWS

Home | Current Version | Previous Version | Text Only | Print | Product List | Glossary Off
Versions: 1 2 3 4 5 6 7 8 9 10 11 12 13 14 15 16 17 18 19 20 21 22 23 24 25 26 27 28 29 30 31 32 33 34 35 36 37 38 39 40 41 42 43 44 45 46 47 48 49 50

000
ASUS43 KIND 151659
RWRIN

WEATHER ROUNDUP FOR INDIANA
NATIONAL WEATHER SERVICE INDIANAPOLIS IN
100 PM EDT TUE APR 15 2014

NOTE: "FAIR" INDICATES FEW OR NO CLOUDS BELOW 12,000 FEET WITH NO
SIGNIFICANT WEATHER AND/OR OBSTRUCTIONS TO VISIBILITY.

* - STATION DOES NOT REPORT WEATHER SUCH AS PRECIPITATION OR FOG.

+ - STATION NOT QUALITY CONTROLLED BY THE NATIONAL WEATHER SERVICE.
    USE DATA WITH CAUTION...ESPECIALLY DEWPOINT AND RELATIVE
    HUMIDITY OBSERVATIONS.

INZ001>003-010>013-019-020-151800-
NORTHWEST INDIANA

CITY           SKY/WX    TMP DP  RH WIND       PRES   REMARKS
GARY /AIRPORT/ PTSUNNY   32  16  51 N12G23    30.16R WCI  23
RENSSELAER +   CLOUDY    32  18  55 NW5       30.15S WCI  27
VALPARAISO     MOSUNNY   31  14  49 NW12G23   30.14R WCI  22

$$

LMZ046-743>745-151800-
SOUTHERN LAKE MICHIGAN

STATION/POSITION TIME  TEMP WIND        PRES
                       AIR  DIR/SP/G
                 (UTC) (F)  (DEG/KT/KT) (MB)
MICHIGAN CITY    1600   29  320/ 17/ 23   N/A

$$

INZ004-005-014>016-021>024-151800-
NORTH CENTRAL INDIANA

CITY           SKY/WX    TMP DP  RH WIND       PRES   REMARKS
ELKHART        PTSUNNY   32  12  43 NW17G29   30.10R WCI  21
GOSHEN         PTSUNNY   32  16  51 NW17G26   30.09R WCI  21
SOUTH BEND     PTSUNNY   32  13  45 NW18G36   30.12R WCI  20

$$

INZ006>009-017-018-025>027-151800-
NORTHEAST INDIANA

CITY           SKY/WX    TMP DP  RH WIND       PRES   REMARKS
ANGOLA *+      CLOUDY    28  16  59 NW17      30.03S WCI  16
FORT WAYNE     PTSUNNY   32  16  51 NW18G25   30.07R WCI  20

$$

INZ028-029-035-036-043>045-051>053-151800-
WEST CENTRAL INDIANA

CITY           SKY/WX    TMP DP  RH WIND       PRES   REMARKS
GREENCASTLE +  CLOUDY    34  16  47 NW13G20   30.14S WCI  25
LAFAYETTE      CLOUDY    33  15  47 NW15G21   30.15R WCI  23
TERRE HAUTE    CLOUDY    36  19  50 N20G25    30.16S

$$

INZ030>032-037>040-046>048-054>057-064-065-151800-
CENTRAL INDIANA

CITY           SKY/WX    TMP DP  RH WIND       PRES   REMARKS
ANDERSON       CLOUDY    32  23  69 NW17G29   30.10R WCI  21
INDIANAPOLIS   PTSUNNY   32  23  69 NW16      30.12R WCI  21
-EAGLE CREEK   FLURRIES  33  20  58 NW16G24   30.12R WCI  23
KOKOMO *+      PTSUNNY   34  18  51 NW18      30.10R WCI  23
MT COMFORT *+  MOSUNNY   32  25  74 N21G32    30.12R WCI  20
SHELBYVILLE    CLOUDY    38  23  55 NW16      30.10R

$$

INZ033-034-041-042-049-050-058-059-151800-
EAST CENTRAL INDIANA

CITY           SKY/WX    TMP DP  RH WIND       PRES   REMARKS
MUNCIE         MOSUNNY   33  21  61 NW20G26   30.08R WCI  21

$$

INZ060-061-067>069-081>083-085>088-151800-
SOUTHWEST INDIANA

CITY           SKY/WX    TMP DP  RH WIND       PRES   REMARKS
EVANSVILLE     PTSUNNY   41  24  51 N14G24    30.18S
HUNTINGBURG *+ PTSUNNY   39  23  52 N14G23    30.17R

$$

INZ062-063-066-070>080-084-089>092-151800-
SOUTH CENTRAL AND SOUTHEAST INDIANA

CITY           SKY/WX    TMP DP  RH WIND       PRES   REMARKS
BLOOMINGTON    CLOUDY    37  19  48 W14G20    30.13R

$$




USA.gov is the U.S. government's official web portal to all federal, state and local government web resources and services.